• Join FlightAware (Why Join?)
  • Login
  • US Flag 
02:14PM EDT


 

Airport Tracker/Info


-or-


 

Live Flight TrackerFlight Track Log ✈ UAL4788 ✈ 01-May-2013 ✈ KFNT - KCLE

Flight Track Log - Related Links

Times and Time Zones

All times are in EDT time to prevent confusion due to time zone crossing. See the UAL4788 flight status page for this flight to view local times or setup timezone preferences in your user account.

Time Position Orientation Groundspeed Altitude Reporting Facility
EDT Latitude Longitude Course Direction KTS MPH feet Rate Location/Type
06:04AM 42.9292 -83.6825 100° East 192 221 3,000  Level Cleveland Center
06:05AM 42.9267 -83.6200 93° East 208 239 4,300 900 Climbing Cleveland Center
06:06AM 42.9169 -83.5147 97° East 255 293 4,900 180 Climbing Cleveland Center
06:07AM 42.8800 -83.4053 115° Southeast 267 307 4,900  Level Cleveland Center
06:08AM 42.8211 -83.3375 140° Southeast 272 313 4,900  Level Cleveland Center
06:09AM 42.6882 -83.3975 100° East  Level Estimated
06:09AM 42.7706 -83.2758 138° Southeast 266 306 4,900  Level Cleveland Center
06:10AM 42.7158 -83.2114 139° Southeast 240 276 5,600 840 Climbing Cleveland Center
06:12AM 42.6589 -83.1439 139° Southeast 211 243 6,900 600 Climbing Cleveland Center
06:12AM 42.6264 -83.1061 139° Southeast 227 261 6,900  Level Cleveland Center
06:13AM 42.5736 -83.0419 138° Southeast 249 287 6,900  Level Cleveland Center
06:14AM 42.5106 -82.9661 138° Southeast 255 293 6,900  Level Cleveland Center
06:15AM 42.4594 -82.9106 141° Southeast 254 292 6,900  Level Cleveland Center
06:16AM 42.4106 -82.8556 140° Southeast 255 293 7,000  Climbing Cleveland Center
06:17AM 42.3639 -82.7947 136° Southeast 267 307 7,000 -60 Level Cleveland Center
06:18AM 42.3108 -82.7339 140° Southeast 267 307 6,900 -60 Descending Cleveland Center
06:19AM 42.2558 -82.6703 139° Southeast 261 300 6,900  Level Cleveland Center
06:20AM 42.2025 -82.6097 140° Southeast 254 292 6,900  Level Cleveland Center
06:21AM 42.1678 -82.5694 139° Southeast 252 290 6,900  Level Cleveland Center
06:21AM 42.1494 -82.5492 141° Southeast 254 292 6,900  Level Cleveland Center
06:22AM 42.0964 -82.4861 139° Southeast 254 292 6,900  Level Cleveland Center
06:23AM 42.0472 -82.4231 136° Southeast 254 292 6,900  Level Cleveland Center
06:24AM 41.9961 -82.3600 137° Southeast 254 292 6,900  Level Cleveland Center
06:25AM 41.9472 -82.3000 138° Southeast 254 292 6,900  Level Cleveland Center
06:26AM 41.8958 -82.2372 138° Southeast 254 292 7,000  Climbing Cleveland Center
06:27AM 41.8425 -82.1747 139° Southeast 254 292 7,000  Level Cleveland Center
06:28AM 41.7933 -82.1094 135° Southeast 254 292 7,000 -300 Level Cleveland Center
06:29AM 41.7400 -82.0442 138° Southeast 254 292 6,500 -900 Descending Cleveland Center
06:30AM 41.6908 -81.9817 136° Southeast 254 292 5,300 -1,260 Descending Cleveland Center
06:31AM 41.6272 -81.9053 138° Southeast 253 291 3,900 -1,140 Descending Cleveland Center
06:32AM 41.5694 -81.8514 145° Southeast 243 280 2,900 -480 Descending Cleveland Center
06:34AM 41.5011 -81.8086 155° Southeast 231 266 2,900 -480 Level Cleveland Center
06:35AM 41.4469 -81.7964 170° South 170 196 2,000 -1,020 Descending Cleveland Center
06:36AM 41.4217 -81.8319 227° Southwest 130 150 900 -1,140 Descending Cleveland Center
06:38AM 41.4000 -81.8500 143° Southeast  Level FlightAware Approximate